Home > Weather > Hialeah > Past weeks

Flag for U.S.A. Weather for the Past 2 Weeks in Hialeah, Florida, U.S.A.

Now
56 °F

Clear.


Feels Like: 52 °F
Forecast: 44 / 67 °F
Wind: 14 mph from Northwest

Location: Opa Locka Airport

Current Time: Feb 11, 2016 at 12:06:33 AM

Latest Report: Feb 10, 2016 at 10:53 PM


Visibility: 10 mi

Pressure: 30.28 "Hg

Humidity: 65%

Dew point: 44 °F

Location of HialeahLocation

Historic Weather in Hialeah — Graph

°F

Hialeah Temperature Yesterday

Maximum temperature yesterday: 64 °F (at 1:53 PM)
Minimum temperature yesterday: 56 °F (at 6:53 AM)
Average temperature yesterday: 60 °F

High & Low Weather Summary for the Past Weeks

 TemperatureHumidityPressure
High83 °F (Jan 27, 12:53 PM)100% (Feb 2, 3:56 AM)30.27 "Hg (Feb 2, 3:56 AM)
Low47 °F (Feb 8, 5:53 AM)35% (Feb 7, 4:53 PM)29.79 "Hg (Jan 28, 5:53 PM)
Average68 °F73%30.06 "Hg
* Reported Jan 26 9:53 PM — Feb 10 9:53 PM, Hialeah, Weather by CustomWeather, © 2016

Note: Actual official high and low records may vary slightly from our data, if they occured in-between our weather recording intervals... More about our weather records

Advertising

Hialeah Weather History for the Previous 24 Hours

 ConditionsComfort  
Time TempWeatherWind HumidityBarometerVisibility
9:53 PM
Wed, Feb 10
58 °FClear.15 mph62%30.27 "Hg10 mi
8:53 PM59 °FClear.10 mph62%30.26 "Hg10 mi
7:53 PM59 °FClear.6 mph60%30.24 "Hg10 mi
6:53 PM59 °FClear.5 mph56%30.22 "Hg10 mi
5:53 PM60 °FSunny.6 mph52%30.21 "Hg10 mi
4:53 PM62 °FSunny.6 mph44%30.20 "Hg10 mi
3:53 PM63 °FSunny.10 mph45%30.20 "Hg10 mi
2:53 PM63 °FSunny.8 mph43%30.20 "Hg10 mi
1:53 PM64 °FSunny.10 mph41%30.20 "Hg10 mi
12:53 PM63 °FSunny.7 mph43%30.23 "Hg10 mi
11:53 AM63 °FPassing clouds.9 mph43%30.24 "Hg10 mi
10:53 AM61 °FSunny.7 mph48%30.26 "Hg10 mi
9:53 AM60 °FSunny.13 mph53%30.26 "Hg10 mi
8:53 AM57 °FSunny.7 mph60%30.24 "Hg10 mi
7:53 AM56 °FSunny.7 mph67%30.21 "Hg10 mi
6:53 AM56 °FClear.6 mph67%30.18 "Hg10 mi
5:53 AM57 °FClear.7 mph64%30.16 "Hg10 mi
4:53 AM58 °FPassing clouds.8 mph62%30.14 "Hg10 mi
3:53 AM60 °FOvercast.13 mph60%30.12 "Hg10 mi
2:53 AM61 °FMostly cloudy.17 mph65%30.11 "Hg10 mi
1:53 AM61 °FOvercast.7 mph72%30.11 "Hg10 mi
12:53 AM61 °FOvercast.6 mph70%30.11 "Hg10 mi
Weather by CustomWeather, © 2016

See weather overviewHow to use our weather pages